Panama City Beach, FL

2:28 PM CST on December 10, 2016 (GMT -0600)
Northwest Florida Beaches International

Weather History for KECP - October, 2013

Change the Weather History Date:

Thursday, October 24, 2013

  Actual Average Record
Temperature  
Mean Temperature 60 °F -  
Max Temperature 76 °F - 85 °F (2016)
Min Temperature 44 °F - 44 °F (2013)
Degree Days  
Heating Degree Days 5    
Cooling Degree Days 0    
Growing Degree Days 10 (Base 50)    
Moisture  
Dew Point 46 °F    
Average Humidity 64    
Maximum Humidity 100    
Minimum Humidity 27    
Precipitation  
Precipitation 0.00 in - 0.00 in (2016)
Month to date precipitation  
Year to date precipitation  
Sea Level Pressure  
Sea Level Pressure 30.20 in    
Wind  
Wind Speed 3 mph (WSW)    
Max Wind Speed 32 mph    
Max Gust Speed -    
Visibility 10 miles    
Events      
T = Trace of Precipitation, MM = Missing Value Source: NWS Daily Summary

Daily Weather History Graph

Daily Weather History Graph

Search for Another Location

Airport or City:

Trip Planner

Search our weather history database for the weather conditions in past years. The results will help you decide how hot, cold, wet, or windy it might be!

Date:

Astronomy

Oct. 24, 2013 Rise Set
Actual Time 7:51 AM EDT 7:02 PM EDT
Civil Twilight 7:27 AM EDT 7:26 PM EDT
Nautical Twilight 6:59 AM EDT 7:55 PM EDT
Astronomical Twilight 6:31 AM EDT 8:23 PM EDT
Moon 11:34 PM EDT (10/24) 12:43 PM EDT (10/24)
Length of Visible Light 11h 59m
Length of Day
11h 10m
Waning Gibbous, 71% of the Moon is Illuminated
Oct 24
Waning Gibbous
Oct 26
Last Quarter
Nov 3
New
Nov 10
First Quarter
Nov 17
Full

Hourly Weather History & Observations

Time (EDT) Temp. Windchill Dew Point Humidity Pressure Visibility Wind Dir Wind Speed Gust Speed Precip Events Conditions
12:53 AM 51.1 °F - 45.0 °F 80% 30.13 in 10.0 mi NW 5.8 mph - N/A   Clear
1:53 AM 50.0 °F - 46.0 °F 86% 30.14 in 10.0 mi Calm Calm - N/A   Clear
2:53 AM 48.0 °F - 46.9 °F 96% 30.15 in 10.0 mi Calm Calm - N/A   Clear
3:53 AM 48.0 °F - 46.9 °F 96% 30.15 in 10.0 mi Calm Calm - N/A   Clear
4:53 AM 46.0 °F 44.8 °F 45.0 °F 96% 30.16 in 10.0 mi South 3.5 mph - N/A   Clear
5:53 AM 45.0 °F - 44.1 °F 97% 30.18 in 10.0 mi Calm Calm - N/A   Clear
6:53 AM 45.0 °F - 44.1 °F 97% 30.19 in 10.0 mi Calm Calm - N/A   Clear
7:53 AM 44.1 °F - 43.0 °F 96% 30.21 in 10.0 mi Calm Calm - N/A   Clear
8:53 AM 48.9 °F - 46.9 °F 93% 30.24 in 10.0 mi Calm Calm - N/A   Clear
9:53 AM 55.9 °F - 46.9 °F 72% 30.26 in 10.0 mi NNE 5.8 mph - N/A   Clear
10:53 AM 62.1 °F - 43.0 °F 50% 30.26 in 10.0 mi NE 8.1 mph - N/A   Clear
11:53 AM 66.9 °F - 42.1 °F 40% 30.25 in 10.0 mi North 9.2 mph - N/A   Clear
12:53 PM 70.0 °F - 41.0 °F 35% 30.24 in 10.0 mi Calm Calm - N/A   Clear
1:53 PM 72.0 °F - 39.9 °F 31% 30.21 in 10.0 mi Calm Calm - N/A   Clear
2:53 PM 75.0 °F - 39.9 °F 28% 30.18 in 10.0 mi Calm Calm - N/A   Clear
3:53 PM 73.9 °F - 45.0 °F 35% 30.17 in 10.0 mi SSE 3.5 mph - N/A   Clear
4:53 PM 75.0 °F - 46.9 °F 37% 30.17 in 10.0 mi South 5.8 mph - N/A   Clear
5:53 PM 72.0 °F - 48.9 °F 44% 30.17 in 10.0 mi South 8.1 mph - N/A   Clear
6:53 PM 68.0 °F - 48.0 °F 49% 30.18 in 10.0 mi WSW 4.6 mph - N/A   Clear
7:53 PM 63.0 °F - 52.0 °F 67% 30.19 in 10.0 mi Calm Calm - N/A   Clear
8:53 PM 59.0 °F - 54.0 °F 83% 30.19 in 10.0 mi Calm Calm - N/A   Clear
9:53 PM 55.9 °F - 53.1 °F 90% 30.21 in 10.0 mi NW 6.9 mph - N/A   Clear
10:53 PM 55.0 °F - 53.1 °F 93% 30.23 in 10.0 mi Calm Calm - N/A   Clear
11:53 PM 54.0 °F - 53.1 °F 97% 30.23 in 10.0 mi Calm Calm - N/A   Clear